TimePST,TemperatureF,Dew PointF,Humidity,Sea Level PressureIn,VisibilityMPH,Wind Direction,Wind SpeedMPH,Gust SpeedMPH,PrecipitationIn,Events,Conditions,WindDirDegrees,DateUTC
12:53 AM,28.9,25.0,85,30.09,5.0,West,3.5,-,N/A,,Overcast,260,2013-01-07 08:53:00
1:51 AM,28.4,24.8,86,30.03,5.0,Calm,Calm,-,N/A,,Mostly Cloudy,0,2013-01-07 09:51:00
1:53 AM,28.9,25.0,85,30.07,5.0,Calm,Calm,-,N/A,,Overcast,0,2013-01-07 09:53:00
2:38 AM,28.4,24.8,86,30.03,6.0,SW,4.6,-,N/A,,Overcast,230,2013-01-07 10:38:00
2:53 AM,28.9,25.0,85,30.07,6.0,WSW,3.5,-,N/A,,Overcast,240,2013-01-07 10:53:00
3:28 AM,30.2,24.8,80,30.01,6.0,Calm,Calm,-,N/A,,Haze,0,2013-01-07 11:28:00
3:50 AM,30.2,24.8,80,30.00,7.0,Calm,Calm,-,N/A,,Overcast,0,2013-01-07 11:50:00
3:53 AM,30.0,24.1,79,30.04,6.0,Calm,Calm,-,N/A,,Haze,0,2013-01-07 11:53:00
4:21 AM,30.2,24.8,80,29.99,6.0,Calm,Calm,-,N/A,,Haze,0,2013-01-07 12:21:00
4:53 AM,28.9,24.1,82,30.02,6.0,Calm,Calm,-,N/A,,Haze,0,2013-01-07 12:53:00
5:53 AM,30.0,25.0,82,29.99,6.0,Calm,Calm,-,N/A,,Haze,0,2013-01-07 13:53:00
6:51 AM,30.2,24.8,80,29.93,6.0,Calm,Calm,-,N/A,,Haze,0,2013-01-07 14:51:00
6:53 AM,30.0,24.1,79,29.97,6.0,Calm,Calm,-,N/A,,Haze,0,2013-01-07 14:53:00
7:53 AM,30.0,25.0,82,29.97,6.0,Calm,Calm,-,N/A,,Haze,0,2013-01-07 15:53:00
8:39 AM,30.2,26.6,86,29.92,4.0,Calm,Calm,-,N/A,,Overcast,0,2013-01-07 16:39:00
8:53 AM,30.9,26.1,82,29.96,4.0,North,3.5,-,N/A,,Haze,10,2013-01-07 16:53:00
9:53 AM,32.0,26.1,79,29.95,5.0,SW,3.5,-,N/A,,Haze,230,2013-01-07 17:53:00
10:53 AM,33.8,26.6,75,29.91,6.0,West,4.6,-,N/A,,Haze,280,2013-01-07 18:53:00
11:33 AM,35.6,26.6,70,29.89,5.0,Calm,Calm,-,N/A,,Haze,0,2013-01-07 19:33:00
11:53 AM,35.1,27.0,72,29.91,6.0,West,3.5,-,N/A,,Haze,280,2013-01-07 19:53:00
12:53 PM,37.0,28.9,73,29.91,8.0,Calm,Calm,-,N/A,,Partly Cloudy,0,2013-01-07 20:53:00
1:53 PM,36.0,28.9,76,29.88,4.0,SE,8.1,-,N/A,,Haze,140,2013-01-07 21:53:00
2:53 PM,37.4,28.4,70,29.87,4.0,ESE,5.8,-,N/A,,Haze,120,2013-01-07 22:53:00
3:31 PM,53.6,30.2,41,29.84,10.0,WNW,28.8,43.7,N/A,,Squalls,290,2013-01-07 23:31:00
3:43 PM,51.8,30.2,44,29.84,10.0,West,29.9,43.7,N/A,,Clear,280,2013-01-07 23:43:00
3:53 PM,51.1,30.9,46,29.86,10.0,West,36.8,48.3,N/A,,Clear,280,2013-01-07 23:53:00
4:53 PM,51.1,30.0,44,29.88,10.0,West,39.1,54.1,N/A,,Clear,270,2013-01-08 00:53:00
5:53 PM,53.1,26.1,35,29.89,10.0,West,34.5,57.5,N/A,,Clear,280,2013-01-08 01:53:00
6:53 PM,52.0,27.0,38,29.92,10.0,West,13.8,36.8,N/A,,Clear,280,2013-01-08 02:53:00
7:53 PM,54.0,27.0,35,29.97,10.0,West,10.4,21.9,N/A,,Partly Cloudy,270,2013-01-08 03:53:00
8:53 PM,51.1,28.0,41,29.99,10.0,NW,13.8,-,N/A,,Clear,310,2013-01-08 04:53:00
9:53 PM,50.0,28.0,43,30.00,10.0,WNW,23.0,26.5,N/A,,Clear,300,2013-01-08 05:53:00
10:53 PM,48.9,27.0,43,30.04,10.0,NNW,13.8,-,N/A,,Clear,340,2013-01-08 06:53:00
11:53 PM,45.0,27.0,49,30.06,10.0,West,5.8,-,N/A,,Clear,280,2013-01-08 07:53:00